Flag for U.S.A. Weather past 2 weeks in Pierre, South Dakota, U.S.A.

Now
48 °F

Sunny.


Feels Like: 42 °F
Forecast: 26 / 51 °F
Wind: 14 mph from Southeast

Location: Pierre Regional Airport

Current Time: Mar 27, 2015 at 5:15:39 PM

Latest Report: Mar 27, 2015 at 3:53 PM


Visibility: 10 mi

Pressure: 29.97 "Hg

Humidity: 59%

Dew point: 34 °F

Location of PierreLocation

Historic Weather in Pierre — Graph

°F

Pierre temperature yesterday

Maximum temperature yesterday: 37 °F (at 4:53 PM)
Minimum temperature yesterday: 19 °F (at 5:53 AM)
Average temperature yesterday: 28 °F

Past Weeks' High & Low Weather Summary

 TemperatureHumidityPressure
High82 °F (Mar 15, 5:53 PM)96% (Mar 21, 2:53 AM)30.61 "Hg (Mar 21, 2:53 AM)
Low19 °F (Mar 23, 2:53 AM)15% (Mar 12, 3:53 PM)29.69 "Hg (Mar 16, 2:53 AM)
Average43 °F53%30.10 "Hg
* Reported Mar 12 3:53 PM — Mar 27 3:53 PM, Pierre, Weather by CustomWeather, © 2015

Note: Actual official high and low records may vary slightly from our data, if they occured in-between our weather recording intervals... More about our weather records

Advertising

Pierre weather history for previous 24 hours

 ConditionsComfort  
Time TempWeatherWind HumidityBarometerVisibility
3:53 PM
Fri, Mar 27
48 °FSunny.14 mph59%29.97 "Hg10 mi
2:53 PM46 °FPassing clouds.16 mph63%30.00 "Hg10 mi
1:53 PM41 °FOvercast.21 mph70%30.05 "Hg10 mi
1:00 PM36 °FMostly cloudy.16 mph85%30.02 "Hg10 mi
11:53 AM30 °FIce fog.14 mph92%30.13 "Hg6 mi
11:00 AM30 °FLight snow. Ice fog.13 mph85%30.10 "Hg1 mi
9:53 AM29 °FOvercast.14 mph72%30.18 "Hg10 mi
8:53 AM27 °FOvercast.14 mph72%30.19 "Hg10 mi
7:53 AM26 °FOvercast.12 mph69%30.24 "Hg10 mi
6:53 AM26 °FOvercast.13 mph69%30.26 "Hg10 mi
5:53 AM26 °FOvercast.12 mph69%30.26 "Hg10 mi
4:53 AM26 °FOvercast.9 mph71%30.27 "Hg10 mi
3:53 AM27 °FMostly cloudy.10 mph66%30.28 "Hg10 mi
2:53 AM27 °FMostly cloudy.7 mph75%30.29 "Hg10 mi
1:53 AM26 °FPassing clouds.6 mph74%30.31 "Hg10 mi
12:53 AM28 °FClear.9 mph72%30.29 "Hg10 mi
11:53 PM
Thu, Mar 26
28 °FClear.6 mph85%30.30 "Hg10 mi
10:53 PM30 °FClear.No wind89%30.29 "Hg10 mi
9:53 PM31 °FPassing clouds.No wind89%30.29 "Hg10 mi
8:53 PM34 °FOvercast.5 mph85%30.28 "Hg10 mi
7:53 PM36 °FOvercast.No wind82%30.27 "Hg10 mi
6:53 PM36 °FOvercast.6 mph82%30.27 "Hg10 mi
5:53 PM36 °FOvercast.6 mph85%30.26 "Hg10 mi
Weather by CustomWeather, © 2015

See weather overviewHow to use our weather pages